Location: Mt. Graham
(32.7020°N, 109.8880°W)
Time: 15:11:26
(UTC-07:00)

Hubble Space Telescope - Visible Passes

Search period start: 17 June 2018 00:00
Search period end: 27 June 2018 00:00
Orbit: 537 x 541 km, 28.5° (Epoch: 17 June)

Date Brightness Start Highest point End Pass type
(mag) Time Alt. Az. Time Alt. Az. Time Alt. Az.
17 Jun 1.5 21:13:39 10° WSW 21:17:25 35° SSW 21:17:33 35° S visible
18 Jun 1.6 21:03:22 10° WSW 21:07:02 31° SSW 21:07:38 30° S visible
19 Jun 1.9 20:53:07 10° WSW 20:56:38 27° SSW 20:57:42 24° S visible
20 Jun 2.2 20:42:56 10° WSW 20:46:14 23° SSW 20:47:46 19° SSE visible
21 Jun 2.5 20:32:49 10° WSW 20:35:49 19° SSW 20:37:50 14° SSE visible
22 Jun 2.8 20:22:48 10° WSW 20:25:22 16° SSW 20:27:56 10° SSE visible
23 Jun 3.0 20:13:02 10° SW 20:14:55 13° SSW 20:16:50 10° S visible
